• In Latvia
  • List of Countries
  • For 7 days
  • Water Temperature
  • Satellite Maps
  • Weather Map
  • Weather Widgets
  • user-avatar
    Login

    Hourly Weather Djelfa

    Today, 14 December, Thursday

    Time Temperature Precipitation Wind Pressure Humidity
    00:00 +5°C° 0 mm 2 mps 668 mmHg 71%
    01:00 +5°C° 0 mm 2 mps 668 mmHg 70%
    02:00 +5°C° 0 mm 2 mps 668 mmHg 70%
    03:00 +4°C° 0 mm 3 mps 668 mmHg 70%
    04:00 +4°C° 0 mm 3 mps 668 mmHg 70%
    05:00 +3°C° 0 mm 3 mps 667 mmHg 70%
    06:00 +3°C° 0 mm 3 mps 667 mmHg 71%
    07:00 +5°C° 0 mm 3 mps 668 mmHg 64%
    08:00 +6°C° 0 mm 4 mps 668 mmHg 57%
    09:00 +8°C° 0 mm 4 mps 669 mmHg 51%
    10:00 +10°C° 0 mm 4 mps 669 mmHg 44%
    11:00 +12°C° 0 mm 5 mps 669 mmHg 38%
    12:00 +13°C° 0 mm 6 mps 669 mmHg 32%
    13:00 +14°C° 0 mm 6 mps 668 mmHg 31%
    14:00 +14°C° 0 mm 5 mps 668 mmHg 29%
    15:00 +14°C° 0 mm 5 mps 667 mmHg 28%
    16:00 +13°C° 0 mm 5 mps 667 mmHg 31%
    17:00 +11°C° 0 mm 4 mps 667 mmHg 35%
    18:00 +9°C° 0 mm 3 mps 666 mmHg 38%
    19:00 +9°C° 0 mm 3 mps 666 mmHg 39%
    20:00 +8°C° 0 mm 3 mps 666 mmHg 40%
    21:00 +8°C° 0 mm 2 mps 666 mmHg 41%
    22:00 +8°C° 0 mm 3 mps 666 mmHg 41%
    23:00 +7°C° 0 mm 3 mps 665 mmHg 42%

    Tomorrow, 15 December, Friday

    Time Temperature Precipitation Wind Pressure Humidity
    00:00 +7°C° 0 mm 3 mps 665 mmHg 42%
    01:00 +7°C° 0 mm 3 mps 665 mmHg 42%
    02:00 +7°C° 0 mm 3 mps 665 mmHg 43%
    03:00 +5°C° 0 mm 3 mps 664 mmHg 43%
    04:00 +5°C° 0 mm 3 mps 664 mmHg 44%
    05:00 +5°C° 0 mm 3 mps 663 mmHg 45%
    06:00 +5°C° 0 mm 2 mps 662 mmHg 46%
    07:00 +7°C° 0 mm 3 mps 663 mmHg 42%
    08:00 +8°C° 0 mm 3 mps 664 mmHg 38%
    09:00 +10°C° 0 mm 4 mps 665 mmHg 33%
    10:00 +11°C° 0 mm 4 mps 664 mmHg 30%
    11:00 +12°C° 0 mm 4 mps 664 mmHg 27%
    12:00 +14°C° 0 mm 4 mps 663 mmHg 24%
    13:00 +14°C° 0 mm 4 mps 663 mmHg 24%
    14:00 +14°C° 0 mm 4 mps 662 mmHg 24%
    15:00 +14°C° 0 mm 3 mps 662 mmHg 24%
    16:00 +13°C° 0 mm 3 mps 661 mmHg 28%
    17:00 +11°C° 0 mm 3 mps 661 mmHg 32%
    18:00 +10°C° 0 mm 3 mps 661 mmHg 36%
    19:00 +10°C° 0.2 mm 3 mps 661 mmHg 45%
    20:00 +9°C° 0.2 mm 2 mps 661 mmHg 54%
    21:00 +8°C° 0.2 mm 2 mps 661 mmHg 63%
    22:00 +8°C° 0.3 mm 3 mps 661 mmHg 70%
    23:00 +7°C° 0.3 mm 4 mps 660 mmHg 76%

    Day after tomorrow, 16 December, Saturday

    Time Temperature Precipitation Wind Pressure Humidity
    00:00 +6°C° 0.3 mm 5 mps 660 mmHg 83%
    01:00 +5°C° 0.1 mm 6 mps 660 mmHg 83%
    02:00 +5°C° 0.1 mm 6 mps 659 mmHg 84%
    03:00 +5°C° 0.1 mm 6 mps 659 mmHg 85%
    04:00 +5°C° 0.3 mm 7 mps 659 mmHg 86%
    05:00 +6°C° 0.3 mm 7 mps 660 mmHg 87%
    06:00 +6°C° 0.3 mm 7 mps 660 mmHg 88%
    07:00 +6°C° 0.2 mm 7 mps 660 mmHg 87%
    08:00 +7°C° 0.2 mm 6 mps 661 mmHg 86%
    09:00 +7°C° 0.2 mm 6 mps 661 mmHg 84%
    10:00 +8°C° 0 mm 6 mps 662 mmHg 79%
    11:00 +8°C° 0 mm 6 mps 662 mmHg 73%
    12:00 +9°C° 0 mm 6 mps 662 mmHg 67%
    13:00 +9°C° 0 mm 6 mps 662 mmHg 65%
    14:00 +9°C° 0 mm 6 mps 662 mmHg 62%
    15:00 +9°C° 0 mm 6 mps 662 mmHg 59%
    16:00 +8°C° 0 mm 5 mps 663 mmHg 63%
    17:00 +7°C° 0 mm 4 mps 663 mmHg 66%
    18:00 +6°C° 0 mm 4 mps 663 mmHg 69%
    19:00 +5°C° 0 mm 3 mps 663 mmHg 71%
    20:00 +5°C° 0 mm 3 mps 664 mmHg 73%
    21:00 +5°C° 0 mm 2 mps 664 mmHg 75%
    22:00 +4°C° 0 mm 2 mps 664 mmHg 76%
    23:00 +4°C° 0 mm 2 mps 664 mmHg 77%

    17 December, Sunday

    Time Temperature Precipitation Wind Pressure Humidity
    00:00 +4°C° 0 mm 2 mps 664 mmHg 78%
    01:00 +3°C° 0 mm 2 mps 664 mmHg 78%
    02:00 +3°C° 0 mm 2 mps 664 mmHg 78%
    03:00 +3°C° 0 mm 2 mps 664 mmHg 78%
    04:00 +2°C° 0 mm 2 mps 664 mmHg 79%
    05:00 +2°C° 0 mm 2 mps 664 mmHg 79%
    06:00 +2°C° 0 mm 2 mps 664 mmHg 80%
    07:00 +2°C° 0 mm 2 mps 665 mmHg 75%
    08:00 +3°C° 0 mm 2 mps 666 mmHg 70%
    09:00 +4°C° 0 mm 2 mps 666 mmHg 66%
    10:00 +5°C° 0 mm 2 mps 666 mmHg 60%
    11:00 +5°C° 0 mm 3 mps 666 mmHg 54%
    12:00 +7°C° 0 mm 3 mps 666 mmHg 48%
    13:00 +7°C° 0 mm 3 mps 666 mmHg 47%
    14:00 +6°C° 0 mm 4 mps 666 mmHg 46%
    15:00 +6°C° 0 mm 4 mps 666 mmHg 45%
    16:00 +5°C° 0 mm 4 mps 666 mmHg 51%
    17:00 +4°C° 0 mm 4 mps 667 mmHg 56%
    18:00 +3°C° 0 mm 3 mps 667 mmHg 62%
    19:00 +3°C° 0 mm 3 mps 667 mmHg 67%
    20:00 +3°C° 0 mm 4 mps 668 mmHg 72%
    21:00 +1°C° 0 mm 4 mps 668 mmHg 76%
    22:00 +1°C° 0 mm 4 mps 669 mmHg 79%
    23:00 +1°C° 0 mm 5 mps 669 mmHg 83%

    18 December, Monday

    Time Temperature Precipitation Wind Pressure Humidity
    00:00 +1°C° 0 mm 5 mps 669 mmHg 86%
    01:00 +1°C° 0 mm 5 mps 669 mmHg 86%
    02:00 +1°C° 0 mm 5 mps 669 mmHg 86%
    03:00 0°C° 0 mm 5 mps 669 mmHg 86%
    04:00 0°C° 0 mm 5 mps 669 mmHg 88%
    05:00 -1°C° 0 mm 5 mps 669 mmHg 90%
    06:00 -1°C° 0 mm 5 mps 669 mmHg 91%
    07:00 -2°C° 0 mm 6 mps 670 mmHg 83%
    08:00 -1°C° 0 mm 6 mps 670 mmHg 75%
    09:00 -1°C° 0 mm 7 mps 671 mmHg 67%
    10:00 0°C° 0 mm 7 mps 671 mmHg 62%
    11:00 +1°C° 0 mm 8 mps 671 mmHg 58%
    12:00 +2°C° 0 mm 8 mps 671 mmHg 54%
    13:00 +2°C° 0 mm 8 mps 671 mmHg 54%
    14:00 +3°C° 0 mm 7 mps 670 mmHg 53%
    15:00 +4°C° 0 mm 7 mps 670 mmHg 53%
    16:00 +3°C° 0 mm 6 mps 670 mmHg 58%
    17:00 +2°C° 0 mm 6 mps 670 mmHg 63%
    18:00 +1°C° 0 mm 5 mps 670 mmHg 68%
    19:00 +1°C° 0 mm 5 mps 670 mmHg 72%
    20:00 0°C° 0 mm 4 mps 671 mmHg 76%
    21:00 +1°C° 0 mm 3 mps 671 mmHg 80%
    22:00 0°C° 0 mm 3 mps 671 mmHg 83%
    23:00 0°C° 0 mm 3 mps 671 mmHg 86%

    19 December, Tuesday

    Time Temperature Precipitation Wind Pressure Humidity
    00:00 +1°C° 0 mm 2 mps 670 mmHg 89%
    01:00 -1°C° 0 mm 2 mps 670 mmHg 90%
    02:00 -1°C° 0 mm 2 mps 670 mmHg 91%
    03:00 -1°C° 0 mm 2 mps 670 mmHg 92%
    04:00 -1°C° 0 mm 2 mps 670 mmHg 92%
    05:00 -1°C° 0 mm 3 mps 669 mmHg 93%
    06:00 -1°C° 0 mm 3 mps 669 mmHg 94%
    07:00 0°C° 0 mm 3 mps 670 mmHg 88%
    08:00 0°C° 0 mm 4 mps 670 mmHg 82%
    09:00 +1°C° 0 mm 4 mps 671 mmHg 77%
    10:00 +3°C° 0 mm 4 mps 671 mmHg 69%
    11:00 +5°C° 0 mm 5 mps 670 mmHg 61%
    12:00 +6°C° 0 mm 5 mps 670 mmHg 53%
    13:00 +5°C° 0 mm 6 mps 670 mmHg 51%
    14:00 +5°C° 0 mm 6 mps 670 mmHg 50%
    15:00 +6°C° 0 mm 7 mps 669 mmHg 48%
    16:00 +5°C° 0 mm 7 mps 669 mmHg 52%
    17:00 +4°C° 0 mm 6 mps 669 mmHg 56%
    18:00 +3°C° 0 mm 6 mps 669 mmHg 61%
    19:00 +3°C° 0 mm 6 mps 669 mmHg 63%
    20:00 +2°C° 0 mm 6 mps 669 mmHg 66%
    21:00 +2°C° 0 mm 6 mps 669 mmHg 69%
    22:00 +2°C° 0 mm 6 mps 669 mmHg 70%
    23:00 +2°C° 0 mm 7 mps 669 mmHg 71%
    Show more